• In Portugal
  • List of Countries
  • For 7 days
  • Water Temperature
  • Satellite Maps
  • Weather Map
  • Weather Widgets
  • user-avatar
    Login

    Hourly Weather Monaco

    Today, 23 October, Monday

    Time Temperature Precipitation Wind Pressure Humidity
    00:00 +12°C° 0 mm 4 mps 752 mmHg 36%
    01:00 +12°C° 0 mm 4 mps 752 mmHg 34%
    02:00 +12°C° 0 mm 3 mps 752 mmHg 32%
    03:00 +12°C° 0 mm 3 mps 752 mmHg 31%
    04:00 +11°C° 0 mm 3 mps 753 mmHg 30%
    05:00 +11°C° 0 mm 3 mps 753 mmHg 30%
    06:00 +11°C° 0 mm 3 mps 753 mmHg 29%
    07:00 +14°C° 0 mm 3 mps 753 mmHg 27%
    08:00 +18°C° 0 mm 3 mps 753 mmHg 24%
    09:00 +20°C° 0 mm 2 mps 753 mmHg 22%
    10:00 +22°C° 0 mm 3 mps 753 mmHg 21%
    11:00 +24°C° 0 mm 3 mps 753 mmHg 20%
    12:00 +25°C° 0 mm 3 mps 753 mmHg 19%
    13:00 +24°C° 0 mm 3 mps 753 mmHg 21%
    14:00 +22°C° 0 mm 3 mps 753 mmHg 23%
    15:00 +22°C° 0 mm 3 mps 752 mmHg 25%
    16:00 +20°C° 0 mm 2 mps 753 mmHg 28%
    17:00 +18°C° 0 mm 2 mps 753 mmHg 32%
    18:00 +16°C° 0 mm 2 mps 753 mmHg 36%
    19:00 +15°C° 0 mm 2 mps 754 mmHg 34%
    20:00 +15°C° 0 mm 2 mps 754 mmHg 32%
    21:00 +15°C° 0 mm 2 mps 755 mmHg 30%
    22:00 +15°C° 0 mm 2 mps 755 mmHg 29%
    23:00 +15°C° 0 mm 2 mps 755 mmHg 29%

    Tomorrow, 24 October, Tuesday

    Time Temperature Precipitation Wind Pressure Humidity
    00:00 +15°C° 0 mm 2 mps 755 mmHg 28%
    01:00 +15°C° 0 mm 2 mps 755 mmHg 28%
    02:00 +15°C° 0 mm 2 mps 755 mmHg 29%
    03:00 +15°C° 0 mm 2 mps 755 mmHg 29%
    04:00 +15°C° 0 mm 2 mps 755 mmHg 30%
    05:00 +15°C° 0 mm 2 mps 755 mmHg 30%
    06:00 +15°C° 0 mm 2 mps 756 mmHg 31%
    07:00 +19°C° 0 mm 1 mps 756 mmHg 28%
    08:00 +21°C° 0 mm 1 mps 756 mmHg 26%
    09:00 +24°C° 0 mm 1 mps 756 mmHg 23%
    10:00 +25°C° 0 mm 1 mps 756 mmHg 23%
    11:00 +26°C° 0 mm 2 mps 756 mmHg 23%
    12:00 +27°C° 0 mm 2 mps 756 mmHg 23%
    13:00 +26°C° 0 mm 2 mps 756 mmHg 25%
    14:00 +25°C° 0 mm 2 mps 756 mmHg 27%
    15:00 +25°C° 0 mm 2 mps 756 mmHg 30%
    16:00 +21°C° 0 mm 2 mps 756 mmHg 36%
    17:00 +19°C° 0 mm 2 mps 757 mmHg 41%
    18:00 +17°C° 0 mm 2 mps 757 mmHg 47%
    19:00 +17°C° 0 mm 2 mps 757 mmHg 46%
    20:00 +17°C° 0 mm 2 mps 758 mmHg 45%
    21:00 +17°C° 0 mm 2 mps 758 mmHg 44%
    22:00 +17°C° 0 mm 2 mps 758 mmHg 43%
    23:00 +17°C° 0 mm 2 mps 758 mmHg 42%

    Day after tomorrow, 25 October, Wednesday

    Time Temperature Precipitation Wind Pressure Humidity
    00:00 +17°C° 0 mm 2 mps 758 mmHg 41%
    01:00 +17°C° 0 mm 2 mps 758 mmHg 41%
    02:00 +18°C° 0 mm 1 mps 758 mmHg 41%
    03:00 +18°C° 0 mm 1 mps 759 mmHg 41%
    04:00 +18°C° 0 mm 1 mps 759 mmHg 41%
    05:00 +16°C° 0 mm 1 mps 759 mmHg 41%
    06:00 +16°C° 0 mm 2 mps 759 mmHg 41%
    07:00 +20°C° 0 mm 1 mps 759 mmHg 37%
    08:00 +23°C° 0 mm 1 mps 760 mmHg 33%
    09:00 +25°C° 0 mm 1 mps 760 mmHg 29%
    10:00 +26°C° 0 mm 1 mps 760 mmHg 29%
    11:00 +26°C° 0 mm 1 mps 760 mmHg 29%
    12:00 +27°C° 0 mm 2 mps 760 mmHg 29%
    13:00 +26°C° 0 mm 2 mps 760 mmHg 32%
    14:00 +26°C° 0 mm 1 mps 760 mmHg 35%
    15:00 +25°C° 0 mm 1 mps 760 mmHg 37%
    16:00 +23°C° 0 mm 1 mps 760 mmHg 43%
    17:00 +21°C° 0 mm 1 mps 760 mmHg 48%
    18:00 +19°C° 0 mm 1 mps 760 mmHg 53%
    19:00 +19°C° 0 mm 1 mps 761 mmHg 52%
    20:00 +19°C° 0 mm 1 mps 761 mmHg 51%
    21:00 +18°C° 0 mm 2 mps 761 mmHg 51%
    22:00 +19°C° 0 mm 1 mps 761 mmHg 50%
    23:00 +19°C° 0 mm 1 mps 761 mmHg 50%

    26 October, Thursday

    Time Temperature Precipitation Wind Pressure Humidity
    00:00 +19°C° 0 mm 1 mps 761 mmHg 50%
    01:00 +19°C° 0 mm 1 mps 761 mmHg 49%
    02:00 +19°C° 0 mm 1 mps 761 mmHg 49%
    03:00 +19°C° 0 mm 1 mps 761 mmHg 48%
    04:00 +18°C° 0 mm 1 mps 761 mmHg 48%
    05:00 +18°C° 0 mm 1 mps 761 mmHg 48%
    06:00 +18°C° 0 mm 1 mps 761 mmHg 48%
    07:00 +21°C° 0 mm 1 mps 761 mmHg 42%
    08:00 +24°C° 0 mm 1 mps 762 mmHg 37%
    09:00 +26°C° 0 mm 1 mps 762 mmHg 31%
    10:00 +27°C° 0 mm 2 mps 761 mmHg 30%
    11:00 +28°C° 0 mm 2 mps 761 mmHg 29%
    12:00 +28°C° 0 mm 3 mps 761 mmHg 28%
    13:00 +28°C° 0 mm 3 mps 761 mmHg 31%
    14:00 +27°C° 0 mm 3 mps 760 mmHg 34%
    15:00 +26°C° 0 mm 3 mps 760 mmHg 37%
    16:00 +24°C° 0 mm 3 mps 760 mmHg 44%
    17:00 +21°C° 0 mm 3 mps 760 mmHg 51%
    18:00 +19°C° 0 mm 3 mps 760 mmHg 57%
    19:00 +19°C° 0 mm 3 mps 760 mmHg 56%
    20:00 +19°C° 0 mm 3 mps 760 mmHg 54%
    21:00 +19°C° 0 mm 3 mps 760 mmHg 53%
    22:00 +19°C° 0 mm 3 mps 760 mmHg 53%
    23:00 +19°C° 0 mm 3 mps 760 mmHg 53%

    27 October, Friday

    Time Temperature Precipitation Wind Pressure Humidity
    00:00 +18°C° 0 mm 3 mps 760 mmHg 52%
    01:00 +18°C° 0 mm 3 mps 759 mmHg 52%
    02:00 +18°C° 0 mm 3 mps 759 mmHg 52%
    03:00 +18°C° 0 mm 3 mps 758 mmHg 52%
    04:00 +18°C° 0 mm 3 mps 758 mmHg 51%
    05:00 +18°C° 0 mm 3 mps 757 mmHg 50%
    06:00 +18°C° 0 mm 2 mps 757 mmHg 49%
    07:00 +20°C° 0 mm 2 mps 757 mmHg 45%
    08:00 +24°C° 0 mm 2 mps 756 mmHg 40%
    09:00 +26°C° 0 mm 2 mps 756 mmHg 36%
    10:00 +27°C° 0 mm 2 mps 755 mmHg 35%
    11:00 +28°C° 0 mm 2 mps 755 mmHg 34%
    12:00 +29°C° 0 mm 3 mps 754 mmHg 34%
    13:00 +28°C° 0 mm 3 mps 753 mmHg 37%
    14:00 +27°C° 0 mm 3 mps 753 mmHg 41%
    15:00 +27°C° 0 mm 3 mps 752 mmHg 44%
    16:00 +25°C° 0 mm 3 mps 752 mmHg 49%
    17:00 +22°C° 0 mm 4 mps 751 mmHg 53%
    18:00 +20°C° 0 mm 4 mps 751 mmHg 58%
    19:00 +20°C° 0 mm 4 mps 751 mmHg 57%
    20:00 +19°C° 0 mm 4 mps 751 mmHg 56%
    21:00 +19°C° 0 mm 4 mps 751 mmHg 55%
    22:00 +18°C° 0 mm 4 mps 750 mmHg 55%
    23:00 +18°C° 0 mm 4 mps 750 mmHg 55%

    28 October, Saturday

    Time Temperature Precipitation Wind Pressure Humidity
    00:00 +18°C° 0 mm 3 mps 750 mmHg 56%
    01:00 +17°C° 0 mm 3 mps 750 mmHg 54%
    02:00 +17°C° 0 mm 2 mps 749 mmHg 52%
    03:00 +17°C° 0 mm 2 mps 749 mmHg 50%
    04:00 +17°C° 0 mm 2 mps 749 mmHg 48%
    05:00 +17°C° 0 mm 2 mps 749 mmHg 46%
    06:00 +17°C° 0 mm 2 mps 749 mmHg 44%
    07:00 +19°C° 0 mm 2 mps 749 mmHg 40%
    08:00 +21°C° 0 mm 2 mps 749 mmHg 36%
    09:00 +25°C° 0 mm 2 mps 749 mmHg 32%
    10:00 +25°C° 0 mm 2 mps 748 mmHg 32%
    11:00 +26°C° 0 mm 2 mps 748 mmHg 32%
    12:00 +27°C° 0 mm 2 mps 747 mmHg 32%
    13:00 +26°C° 0 mm 2 mps 747 mmHg 36%
    14:00 +25°C° 0 mm 2 mps 747 mmHg 39%
    15:00 +24°C° 0 mm 2 mps 746 mmHg 42%
    16:00 +21°C° 0 mm 2 mps 747 mmHg 48%
    17:00 +19°C° 0 mm 2 mps 747 mmHg 53%
    18:00 +17°C° 0 mm 2 mps 748 mmHg 59%
    19:00 +17°C° 0 mm 2 mps 748 mmHg 55%
    20:00 +17°C° 0 mm 2 mps 749 mmHg 51%
    21:00 +16°C° 0 mm 2 mps 749 mmHg 47%
    22:00 +16°C° 0 mm 3 mps 750 mmHg 45%
    23:00 +16°C° 0 mm 3 mps 750 mmHg 42%

    29 October, Sunday

    Time Temperature Precipitation Wind Pressure Humidity
    00:00 +16°C° 0 mm 3 mps 750 mmHg 40%
    01:00 +16°C° 0 mm 3 mps 750 mmHg 39%
    02:00 +14°C° 0 mm 3 mps 750 mmHg 38%
    03:00 +14°C° 0 mm 3 mps 751 mmHg 38%
    04:00 +14°C° 0 mm 3 mps 751 mmHg 39%
    05:00 +14°C° 0 mm 3 mps 751 mmHg 40%
    06:00 +15°C° 0 mm 2 mps 752 mmHg 41%
    07:00 +17°C° 0 mm 2 mps 752 mmHg 39%
    08:00 +19°C° 0 mm 2 mps 753 mmHg 37%
    09:00 +23°C° 0 mm 2 mps 754 mmHg 35%
    10:00 +23°C° 0 mm 2 mps 754 mmHg 34%
    11:00 +24°C° 0 mm 2 mps 754 mmHg 34%
    12:00 +24°C° 0 mm 2 mps 754 mmHg 33%
    13:00 +23°C° 0 mm 2 mps 753 mmHg 36%
    14:00 +23°C° 0 mm 2 mps 753 mmHg 39%
    15:00 +21°C° 0 mm 2 mps 753 mmHg 42%
    16:00 +19°C° 0 mm 2 mps 753 mmHg 49%
    17:00 +18°C° 0 mm 1 mps 753 mmHg 55%
    18:00 +15°C° 0 mm 1 mps 754 mmHg 62%
    19:00 +15°C° 0 mm 1 mps 753 mmHg 60%
    20:00 +15°C° 0 mm 2 mps 753 mmHg 58%
    21:00 +15°C° 0 mm 2 mps 753 mmHg 55%
    22:00 +15°C° 0 mm 2 mps 753 mmHg 54%
    23:00 +15°C° 0 mm 2 mps 753 mmHg 53%
    Show more